Overview Statistics Trail Chart Weather Telemetry Raw packets
 

This is the latest recevied weather packets stored in our database for station/object OE3TEC-15. If no packets are shown the sender has not sent any weather packets the latest 10 day(s).

<< 17 18 19 20 21 22 23 >>
Time Temp. Humidity Pressure Rain* Wind** Luminosity Snow
1787895652 20.56° C 56% 1016.4 hPa 0 mm - 71 W/m² -
1787895015 20.56° C 56% 1016.6 hPa 0 mm - 73 W/m² -
1787894394 20.56° C 56% 1016.5 hPa 0 mm - 70 W/m² -
1787893154 20.56° C 57% 1016.7 hPa 0 mm - 42 W/m² -
1787891931 20.56° C 58% 1016.5 hPa 0 mm - 15 W/m² -
1787891295 20.56° C 58% 1016.4 hPa 0 mm - 9 W/m² -
1787890692 20.56° C 58% 1016.5 hPa 0 mm - 6 W/m² -
1787890056 20.56° C 58% 1016.5 hPa 0 mm - 3 W/m² -
1787889452 20.56° C 58% 1016.4 hPa 0 mm - 1 W/m² -
1787888816 20.56° C 58% 1016.6 hPa 0 mm - 0 W/m² -
1787886336 21.11° C 59% 1016.2 hPa 0 mm - 0 W/m² -
1787885732 21.11° C 59% 1016.4 hPa 0 mm - 0 W/m² -
1787883906 21.67° C 59% 1016.1 hPa 0 mm - 0 W/m² -
1787882673 21.67° C 59% 1016.4 hPa 0 mm - 0 W/m² -
1787882048 21.67° C 59% 1016.5 hPa 0 mm - 0 W/m² -
1787880205 22.22° C 58% 1016.3 hPa 0 mm - 0 W/m² -
1787879583 22.22° C 58% 1016.2 hPa 0 mm - 0 W/m² -
1787878377 22.78° C 57% 1016.7 hPa 0 mm - 0 W/m² -
1787876520 22.78° C 58% 1016.6 hPa 0 mm - 0 W/m² -
1787875916 22.78° C 58% 1016.6 hPa 0 mm - 0 W/m² -
1787874677 22.22° C 59% 1016.8 hPa 0 mm - 0 W/m² -
1787874040 22.22° C 59% 1017.1 hPa 0 mm - 0 W/m² -
1787872197 21.67° C 61% 1017.3 hPa 0 mm - 0 W/m² -
1787871583 21.67° C 62% 1017.3 hPa 0 mm - 0 W/m² -
1787870377 19.44° C 71% 1017.5 hPa 0 mm - 0 W/m² -

* Rain latest hour (hover to see other rain measurements)
** Current wind speed in m/s (hover to see current wind gust speed)